Flag for Germany Weather past 2 weeks in Schleswig, Schleswig-Holstein, Germany

Now
50 °F

Drizzle. Low clouds.


Feels Like: 45 °F
Forecast: 42 / 51 °F
Wind: 10 mph from Southwest

Location: Schleswig

Current Time: Dec 18, 2014 at 6:07:15 PM

Latest Report: Dec 18, 2014 at 5:00 PM


Visibility: 2 mi

Pressure: 29.50 "Hg

Humidity: 100%

Dew point: 50 °F

Location of SchleswigLocation

Historic Weather in Schleswig — Graph

°F

Schleswig temperature yesterday

Maximum temperature yesterday: 41 °F (at 11:00 PM)
Minimum temperature yesterday: 37 °F (at 9:00 AM)
Average temperature yesterday: 38 °F

Past Weeks' High & Low Weather Summary

 TemperatureHumidityPressure
High50 °F (Dec 18, 5:00 PM)100% (Dec 5, 6:00 AM)30.28 "Hg (Dec 5, 6:00 AM)
Low32 °F (Dec 14, 7:00 AM)77% (Dec 13, 12:00 AM)29.03 "Hg (Dec 12, 1:00 PM)
Average38 °F95%29.81 "Hg
* Reported Dec 3 5:00 PM — Dec 18 5:00 PM, Schleswig, Weather by CustomWeather, © 2014

Note: Actual official high and low records may vary slightly from our data, if they occured in-between our weather recording intervals... More about our weather records

Advertising

Schleswig weather history for previous 24 hours

 ConditionsComfort  
Time TempWeatherWind HumidityBarometerVisibility
5:00 PM
Dec 18
50 °FDrizzle. Low clouds.10 mph100%29.50 "Hg2 mi
3:00 PM49 °FDrizzle. Low clouds.8 mph100%29.55 "Hg2 mi
2:00 PM49 °FDrizzle. Low clouds.8 mph100%29.57 "Hg2 mi
1:00 PM49 °FDrizzle. Low clouds.8 mph100%29.60 "Hg1 mi
12:00 PM49 °FDrizzle. Low clouds.7 mph100%29.62 "Hg1 mi
11:00 AM49 °FDrizzle. Low clouds.6 mph100%29.62 "Hg1 mi
9:00 AM47 °FRain. Low clouds.6 mph100%29.64 "Hg1 mi
8:00 AM46 °FRain. Low clouds.5 mph100%29.64 "Hg1 mi
7:00 AM45 °FFog.5 mph100%29.65 "Hg0 mi
6:00 AM45 °FFog.5 mph100%29.65 "Hg2 mi
5:00 AM45 °FLow clouds.3 mph98%29.65 "Hg9 mi
3:00 AM46 °FLow clouds.5 mph100%29.64 "Hg6 mi
2:00 AM45 °FLow clouds.5 mph100%29.63 "Hg12 mi
1:00 AM44 °FLow clouds.5 mph100%29.61 "Hg12 mi
12:00 AM44 °FLow clouds.5 mph100%29.60 "Hg9 mi
11:00 PM
Dec 17
41 °FFog.3 mph100%29.59 "Hg3 mi
9:00 PM38 °FDrizzle. Fog.3 mph100%29.55 "Hg3 mi
8:00 PM38 °FFog.3 mph100%29.53 "Hg1 mi
7:00 PM38 °FLow clouds.3 mph100%29.50 "Hg1 mi
6:00 PM37 °FFog.3 mph99%29.50 "Hg2 mi
Weather by CustomWeather, © 2014

See weather overviewHow to use our weather pages